Tracking 19562 objects as of 23-Mar-2019
HD Live streaming from Space Station
objects crossing your sky now

COSMOS 1997

Track COSMOS 1997 now!
10-day predictions
COSMOS 1997 is classified as:


NORAD ID: 19788
Int'l Code: 1989-009D
Perigee: 1,407.8 km
Apogee: 1,422.5 km
Inclination: 82.6 °
Period: 114.0 minutes
Semi major axis: 7786 km
RCS: 1.1265 m2 (large)
Launch date: February 10, 1989
Source: Commonwealth of Independent States (former USSR) (CIS)
Launch site: PLESETSK MISSILE AND SPACE COMPLEX (PKMTR)
aabbcc
Your satellite tracking list
Your tracking list is empty




NASA's NSSDC Master Catalog

Two Line Element Set (TLE):
1 19788U 89009D   19082.85018296  .00000007  00000-0 -21439-4 0  9999
2 19788  82.6174 241.5602 0009411 227.1534 246.6897 12.63625777388953
Source of the keplerian elements: AFSPC